Preview of NWS' New Version of Forecast
This preview is not operational and should not be used for support decisions.

Regional Weather Roundup (RWR)

Issued by National Weather Service (NWS)

                            
000
ASUS43 KLSX 220407
RWRMO 

WEATHER SUMMARY FOR MISSOURI
NATIONAL WEATHER SERVICE SPRINGFIELD MO
1100 PM CDT SUN JUL 21 2019

NOTE: "FAIR" INDICATES FEW OR NO CLOUDS BELOW 12,000 FEET WITH NO
       SIGNIFICANT WEATHER AND/OR OBSTRUCTIONS TO VISIBILITY.
       CURRENT SKY AND/OR WEATHER CONDITIONS ARE NOT AVAILABLE FOR
       CHILLICOTHE AND FARMINGTON.

MOZ001>031-035>038-043-044-053-054-220500-
...NORTHERN AND WESTERN MISSOURI...
  
CITY           SKY/WX    TMP DP  RH WIND       PRES   REMARKS
KANSAS CTY INT LGT RAIN  71  70  96 NE15      30.02R                  
KANSAS C DTWN  CLOUDY    73  69  87 NE10G21   30.01R                  
LEE'S SUMMIT   CLOUDY    72  69  90 NE13G23   30.01S                  
ST JOSEPH      CLOUDY    72  69  90 N9        30.05R                  
CHILLICOTHE      N/A     73  71  93 N3        30.03R                  
KIRKSVILLE     CLOUDY    72  69  90 NE13      30.02S                  
     
$$
MOZ066>068-077>081-088>096-101>105-220500-
...SOUTHWEST MISSOURI...
  
CITY           SKY/WX    TMP DP  RH WIND       PRES   REMARKS
SPRINGFIELD    CLEAR     81  73  76 S5        29.92R                  
JOPLIN         TSTM      70  68  93 E3        29.97F                  
               
$$
MOZ032>034-039>042-045>050-055>058-069>072-220500-
...CENTRAL MISSOURI...  
  
CITY           SKY/WX    TMP DP  RH WIND       PRES   REMARKS
COLUMBIA       LGT RAIN  77  72  84 N10       29.96S                  
ROLLA          LGT RAIN  77  71  82 NE6       29.96S                  
SEDALIA        MOCLDY    72  32  23 NE9       29.99R                  
WHITEMAN AFB   TSTM      74  74 100 N12       29.95                   
WARRENSBURG    RAIN      72  70  94 N13G20    29.99R                  
OSAGE BEACH    RAIN      76  75  97 VRB3      29.98R                  
               
$$
MOZ051-052-059>065-220500-
...EAST CENTRAL MISSOURI...
  
CITY           SKY/WX    TMP DP  RH WIND       PRES   REMARKS
ST LOUIS INTL  PTCLDY    82  72  71 NE7       29.93F                  
SPIRIT OF STL  MOCLDY    83  73  72 NE6       29.91F                  
ST CHARLES       N/A    N/A N/A N/A MISG      29.91F                  
                   
$$
MOZ072>076-082>087-097>100-106>115-220500-
...SOUTH CENTRAL AND SOUTHEAST MISSOURI...
  
CITY           SKY/WX    TMP DP  RH WIND       PRES   REMARKS
CAPE GIRARDEAU MOCLDY    77  71  82 S10       29.91R THUNDER          
FARMINGTON     CLEAR     79  75  87 NE3       29.94F                  
POPLAR BLUFF   FAIR      82  79  90 S9        29.90F HX  92           
WEST PLAINS    CLEAR     78  73  84 S3        29.96S                  
                                       
$$